FW0812 Weather Reports


Display with metric or nautical units.
time (UTC)temp
F
wind
direction
speed
MPH
gust
MPH
rain 1hr
in
rain 24hr
in
rain mn
in
humidity
%
barometer
mb
20260505011537 64 232 0.0 0.0 0.00 0.00 0.00 45 1010.1
20260505010034 65 249 0.0 0.0 0.00 0.00 0.00 42 1009.8
20260505004533 66 284 0.0 0.0 0.00 0.00 0.00 42 1009.4
20260505003032 67 284 0.0 0.0 0.00 0.00 0.00 40 1009.0
20260505001532 67 284 0.0 0.0 0.00 0.00 0.00 39 1008.7
20260505000046 68 284 0.0 0.0 0.00 0.00 0.00 37 1008.5
20260504234533 69 290 0.0 0.0 0.00 0.00 0.00 37 1008.1
20260504233031 70 281 0.0 0.0 0.00 0.00 0.00 35 1008.1
20260504231530 70 269 0.0 0.0 0.00 0.00 0.00 34 1007.9
20260504230030 71 293 0.0 0.0 0.00 0.00 0.00 34 1007.7
20260504224529 71 275 0.0 0.0 0.00 0.00 0.00 34 1007.5
20260504223029 71 265 0.0 0.0 0.00 0.00 0.00 34 1007.3
20260504221528 72 277 0.0 0.0 0.00 0.00 0.00 34 1007.3
20260504220042 72 263 0.0 0.0 0.00 0.00 0.00 33 1007.3
20260504214530 72 277 0.0 0.0 0.00 0.00 0.00 32 1007.4
20260504213026 73 265 0.0 0.0 0.00 0.00 0.00 32 1007.3
20260504211536 73 270 0.0 0.0 0.00 0.00 0.00 31 1007.3
20260504210026 73 227 0.0 0.0 0.00 0.00 0.00 32 1007.4
20260504204536 74 271 0.0 0.0 0.00 0.00 0.00 30 1007.3
20260504203024 73 282 0.0 0.0 0.00 0.00 0.00 31 1007.2
20260504201523 73 241 0.0 0.0 0.00 0.00 0.00 31 1007.3
20260504200023 73 272 0.0 0.0 0.00 0.00 0.00 30 1007.2
20260504194522 74 293 0.0 0.0 0.00 0.00 0.00 30 1007.3
20260504193021 73 290 0.0 0.0 0.00 0.00 0.00 31 1007.4
20260504191517 73 263 0.0 0.0 0.00 0.00 0.00 30 1007.5
20260504190015 71 328 0.0 0.0 0.00 0.00 0.00 33 1007.6
20260504184514 70 270 0.0 0.0 0.00 0.00 0.00 31 1007.8
20260504183013 70 124 0.0 0.0 0.00 0.00 0.00 33 1007.9
20260504181517 72 273 0.0 0.0 0.00 0.00 0.00 31 1008.1
20260504180011 71 265 0.0 0.0 0.00 0.00 0.00 31 1007.8
20260504174508 71 308 0.0 0.0 0.00 0.00 0.00 31 1007.8
20260504173005 71 229 0.0 0.0 0.00 0.00 0.00 33 1008.2
20260504171506 70 262 0.0 0.0 0.00 0.00 0.00 33 1008.2
20260504120104 48 236 0.0 0.0 0.00 0.00 0.00 65 1011.7
20260504081521 43 273 0.0 0.0 0.00 0.00 0.00 65 1011.6
20260504044551 39 276 0.0 0.0 0.00 0.00 0.00 68 1011.3
20260504043056 40 276 0.0 0.0 0.00 0.00 0.00 67 1011.3
20260504041547 40 276 0.0 0.0 0.00 0.00 0.00 67 1011.2
20260504040052 40 276 0.0 0.0 0.00 0.00 0.00 67 1011.2
20260504034552 41 276 0.0 0.0 0.00 0.00 0.00 66 1011.1
20260504033042 41 276 0.0 0.0 0.00 0.00 0.00 66 1011.1
20260504031542 41 276 0.0 0.0 0.00 0.00 0.00 66 1011.1
20260504030047 41 276 0.0 0.0 0.00 0.00 0.00 65 1011.1
20260504024539 43 276 0.0 0.0 0.00 0.00 0.00 63 1011.0
20260504023038 44 276 0.0 0.0 0.00 0.00 0.00 59 1011.1
20260504021537 45 276 0.0 0.0 0.00 0.00 0.00 58 1011.1
20260504020046 45 276 0.0 0.0 0.00 0.00 0.00 55 1010.9
20260504014547 46 276 0.0 0.0 0.00 0.00 0.00 55 1010.9
20260504013038 46 276 0.0 0.0 0.00 0.00 0.00 54 1010.8